Regional Weather Roundup
Issued by NWS New Orleans/Baton Rouge, LA

Home | Current Version | Previous Version | Text Only | Print | Product List | Glossary On
Versions: 1 2 3 4 5 6 7 8 9 10 11 12 13 14 15 16 17 18 19 20 21 22 23 24 25 26 27 28 29 30 31 32 33 34 35 36 37 38 39 40 41 42 43 44 45 46 47 48 49 50
000
ASUS44 KLIX 051513
RWRLIX
NEW ORLEANS REGIONAL WEATHER ROUNDUP
NATIONAL WEATHER SERVICE NEW ORLEANS LA
900 AM CST MON DEC 05 2016

NOTE: "FAIR" INDICATES FEW OR NO CLOUDS BELOW 12,000 FEET WITH NO
      SIGNIFICANT WEATHER AND/OR OBSTRUCTIONS TO VISIBILITY.
      SKY/WX - SKY CONDITION AND SIGNIFICANT WEATHER.
      TMP - AIR TEMPERATURE.     DP    - DEWPOINT TEMPERATURE.
      RH  - RELATIVE HUMIDITY.   PRES  - PRESSURE.
      HI  - HEAT INDEX.          WCI   - WIND CHILL INDEX.

*  THESE STATIONS ARE NOT NWS OR FAA STATIONS AND ARE NOT UNDER
   NWS QUALITY CONTROL.

LAZ038-040-048-061>063-065>067-069-051600-
SOUTHEAST LOUISIANA

CITY           SKY/WX    TMP DP  RH WIND       PRES   REMARKS
N.O. AUDUBON   NOT AVBL
N.O. INTL ARPT FOG       60  60 100 NE8       29.87S VSB 1/4
N.O. LAKEFRONT FOG       60  60 100 NE9       29.89R VSB 1/4
N.O. DOWNTOWN* LGT RAIN  61  60  97 NE8       29.88S FOG
RESERVE*       FOG       60  59  94 NE6       29.87F VSB 1/2
SLIDELL        FOG       59  59 100 NE7       29.88S VSB 1/2
BATON ROUGE    RAIN      54  53  97 NE9       29.89S FOG
BOOTHVILLE     CLOUDY    64  64 100 E10       29.85F FOG
BELLE CHASSE   CLOUDY    62  61  96 NE7       29.86S FOG
BOGALUSA*      CLOUDY    58  55  89 NE5       29.92S
GALLIANO*      DRIZZLE   64  61  91 NE9       29.83F
NEW ROADS*     LGT RAIN  51  51  98 NE6       29.91S
GONZALES*      LGT RAIN  57  57 100 N5        29.86F
HAMMOND*       LGT RAIN  55  54  94 NE3       29.90R VSB 1
HOUMA*         FOG       61  61 100 NE9       29.82F VSB 1
PORT FOURCHON* CLOUDY    66  64  94 NE10G17   29.82F FOG

$$

MSZ070-080>082-051600-
SOUTHERN MISSISSIPPI

CITY           SKY/WX    TMP DP  RH WIND       PRES   REMARKS
MCCOMB         LGT RAIN  52  50  93 N5        29.92R FOG
GULFPORT       CLOUDY    59  59 100 NE7       29.89S FOG
BILOXI         NOT AVBL
PASCAGOULA     CLOUDY    60  57  89 NE6       29.90R FOG
STENNIS ARPT*  FOG       57  55  94 VRB5      29.90R VSB 1/2

$$

COASTAL OBSERVATIONS
LAKE AND NEARSHORE STATIONS

STATION/POSITION TIME  TEMP    WIND        PRES    WAVE
                       AIR SEA DIR/SP/G            HT/PER
                 (UTC) (F)     (DEG/KT/KT) (MB)    (FT/S)
PASCAGOULA       1436   61      30/  8/ 10 1011.6
WAVELAND YACHT   1436   58 61   50/  9/ 10 1012.0
GRAND ISLE       1436   65 68   70/ 10/ 14 1010.3
SOUTHWEST PASS   1448          110/ 12/ 14   N/A
NEW CANAL        1436   60 62   60/  8/  9 1010.8
SHELL BEACH      1436   62 64   70/ 12/ 14 1011.5

OFFSHORE STATIONS

STATION/POSITION TIME  TEMP    WIND        PRES    WAVE
                       AIR SEA DIR/SP/G            HT/PER
                 (UTC) (F)     (DEG/KT/KT) (MB)    (FT/S)
64 S DAUPHIN ISL 1450   76 75  130/ 12/ 14 1011.0    5/ 8

$$




USA.gov is the U.S. government's official web portal to all federal, state and local government web resources and services.